Theta_e
313 313 313 313 313 313 313 312 312 312 312 311 311 309 308 311 310 297 294 303 306 316 317 303 298 299 301 305 307 307 295 291 289 290 290 289 287 289 289 287 290 291 288 290 293
312 312 313 313 312 312 312 312 312 312 312 312 311 308 306 308 296 291 306 311 315 319 301 298 300 302 298 301 299 297 290 288 288 285 284 286 285 285 285 286 286 287 289 291 293
311 311 312 312 312 312 312 312 312 311 311 312 311 307 305 303 291 289 310 310 316 312 300 296 297 301 295 294 293 291 289 289 286 287 287 286 285 287 284 283 283 284 287 290 291
311 311 311 311 311 311 311 311 311 311 311 311 311 310 306 297 281 292 310 310 314 301 296 294 293 291 288 287 291 288 286 289 289 287 287 284 287 285 285 284 288 286 288 290 290
310 310 311 311 311 311 310 311 311 311 310 310 311 314 297 286 286 296 309 303 297 295 292 292 290 288 285 287 287 285 284 286 287 288 286 288 285 284 284 285 288 289 291 289 290
310 310 310 310 310 311 310 310 310 310 310 310 312 313 292 282 293 296 295 296 294 293 291 291 289 289 286 285 285 286 286 284 286 286 287 285 285 286 285 287 286 288 287 287 289
310 310 310 310 310 310 309 310 309 309 309 309 310 298 287 285 293 294 295 294 294 292 290 292 291 288 287 283 287 287 283 285 283 285 285 285 284 285 285 287 286 287 287 288 290
310 310 310 310 309 309 308 309 309 308 309 309 312 291 283 293 292 294 294 293 295 294 293 293 293 289 285 286 284 282 282 278 283 285 285 284 280 285 287 285 284 285 285 288 289
310 310 310 309 309 308 308 310 307 309 310 311 294 288 282 299 291 293 292 291 293 294 293 295 293 287 286 281 279 280 276 277 281 284 284 282 279 285 287 285 284 284 284 286 287
309 310 310 309 309 309 310 311 306 303 298 297 294 288 289 287 292 293 293 293 291 291 292 291 287 280 279 278 275 274 274 277 277 282 281 280 281 284 286 285 284 284 283 284 287
309 310 309 309 308 308 304 297 292 290 289 283 285 287 288 291 295 291 293 292 292 288 281 285 279 275 277 279 279 278 276 275 279 282 280 278 279 282 284 284 282 283 283 284 286
308 309 308 308 308 306 296 289 289 290 282 289 289 289 291 291 287 289 294 288 287 281 283 280 276 280 283 283 280 278 276 276 279 282 280 278 279 283 284 284 283 283 284 285 285
308 308 308 308 307 296 292 291 297 294 283 285 288 287 287 290 284 285 289 287 283 281 279 279 280 284 283 280 280 278 277 275 276 279 280 277 276 281 283 283 284 285 286 286 286
308 308 307 309 296 293 289 296 296 294 274 283 284 287 289 289 285 290 290 287 284 280 279 278 281 282 279 280 280 276 280 279 278 275 272 277 273 276 281 281 283 285 284 284 286
307 307 306 306 293 289 293 296 294 291 270 282 284 290 289 285 284 287 289 288 281 281 282 277 277 278 279 279 281 278 280 278 278 274 273 273 271 276 279 279 281 283 284 285 286
306 306 304 297 293 293 296 294 292 278 269 275 282 281 282 285 284 286 287 287 286 281 280 278 282 281 279 282 281 282 279 278 276 273 268 274 272 275 278 281 281 283 284 285 284
306 304 299 298 291 295 294 290 278 271 277 274 275 280 279 279 281 281 281 279 279 275 275 277 277 279 281 277 280 279 276 271 270 269 271 274 273 278 281 282 283 283 284 284 284
305 304 300 297 295 292 291 281 270 272 271 279 278 279 278 278 279 279 277 275 278 278 272 274 273 278 280 277 275 276 275 272 267 270 272 275 273 279 283 284 285 285 284 283 285
305 297 295 295 297 291 283 270 274 275 281 278 278 275 271 278 277 276 276 275 278 278 274 271 275 278 280 280 278 276 272 276 271 269 268 273 276 282 283 284 282 282 282 283 284
295 294 294 296 294 288 277 277 275 283 282 281 276 277 269 270 274 274 274 278 278 280 277 276 272 277 278 279 279 277 280 273 271 264 263 273 275 278 280 281 282 281 282 284 284
294 286 292 295 292 281 273 272 277 283 282 280 278 274 277 273 273 270 273 277 280 278 280 270 274 275 276 273 275 274 272 272 272 272 268 268 272 280 281 282 282 282 283 283 284
294 284 291 292 278 277 272 276 283 279 280 280 279 281 278 277 272 274 273 277 282 280 276 277 271 271 273 276 278 277 276 275 269 268 270 272 271 283 282 283 282 283 283 283 285
289 287 291 290 274 272 277 277 279 279 279 278 278 280 280 278 273 276 279 280 283 279 276 276 270 265 271 273 275 270 276 278 275 274 268 267 274 282 281 281 282 282 282 283 284
288 283 285 287 285 283 274 274 275 280 280 281 279 279 278 277 278 273 278 279 281 281 286 282 274 272 271 272 271 267 269 275 271 266 271 273 278 283 284 283 285 284 282 283 283
289 285 286 279 281 277 281 280 278 276 278 281 279 278 276 271 276 276 278 277 280 285 281 275 267 269 272 274 272 272 270 273 272 276 271 278 276 281 283 282 282 283 283 283 283
286 285 283 285 285 283 284 280 279 279 278 277 277 280 279 275 279 276 278 277 277 279 278 277 266 268 266 275 274 272 274 275 276 276 276 277 276 283 284 284 283 283 282 282 283
292 289 289 286 284 283 284 285 282 283 282 282 281 280 278 280 285 282 282 282 280 279 277 275 270 264 264 273 272 268 272 275 275 276 276 273 278 283 282 282 282 282 283 283 283
Wind_Speed
16 16 15 15 14 14 13 12 10 11 10 11 10 9 10 9 7 7 15 10 12 21 18 7 3 3 2 2 5 4 4 2 5 4 1 7 7 8 4 4 5 5 3 5 9
15 15 15 16 15 15 14 12 12 13 14 13 11 7 6 6 1 12 18 23 23 22 7 7 4 2 4 4 5 6 5 3 3 2 3 5 4 5 6 6 6 9 5 6 6
15 15 16 15 15 15 15 14 12 13 15 14 13 7 5 4 4 7 24 24 25 19 5 3 5 5 7 5 6 5 4 6 4 4 4 4 6 6 4 3 1 6 8 9 8
17 17 17 16 15 17 16 13 13 13 15 12 11 8 3 1 4 5 20 22 21 12 3 6 5 5 5 5 5 8 8 5 1 2 2 3 7 7 3 3 1 3 3 5 7
17 18 17 17 17 17 16 14 13 13 15 14 13 9 2 9 3 8 15 14 10 8 8 5 8 5 5 5 4 7 4 4 3 6 4 4 5 4 2 1 3 5 4 4 5
17 17 18 18 19 18 18 15 12 12 14 15 15 6 2 8 5 8 9 8 8 7 9 8 4 5 7 5 5 3 6 3 4 5 4 4 5 5 4 4 2 2 1 1 4
16 17 18 19 20 19 18 16 14 12 13 13 13 4 10 5 3 8 8 3 7 4 5 4 4 6 6 4 1 4 4 1 3 5 1 4 3 7 5 4 2 6 6 3 5
18 18 19 20 21 19 19 17 14 12 13 10 11 5 4 1 4 6 8 5 9 3 1 3 4 6 5 4 2 3 4 4 1 6 2 4 8 4 7 5 3 6 7 6 6
17 18 19 20 21 20 20 17 12 11 11 11 5 7 1 2 5 7 4 5 8 4 2 3 1 6 5 3 5 8 2 2 6 2 3 5 8 7 3 5 7 6 7 6 6
17 19 20 21 22 20 21 10 8 9 7 2 4 5 6 5 6 8 6 4 4 6 4 8 7 6 7 7 3 2 3 4 4 5 3 6 19 14 16 10 11 7 7 5 6
17 19 20 21 22 21 10 4 7 7 12 4 4 2 2 8 5 7 5 9 1 7 5 6 11 4 2 3 3 3 2 3 5 2 7 4 15 19 10 8 8 8 7 6 8
16 19 21 21 19 18 5 8 3 2 4 3 2 2 1 2 5 9 10 6 8 5 3 9 5 3 1 2 1 2 0 4 7 3 5 8 20 18 11 10 9 9 8 8 6
16 18 21 21 14 6 7 4 4 4 4 3 2 2 4 4 3 8 7 4 5 7 7 6 3 1 1 4 5 2 1 1 5 9 5 8 9 6 3 4 5 7 6 6 9
13 17 20 21 7 1 5 5 4 3 8 5 4 4 3 2 5 1 3 1 6 4 4 6 0 1 1 2 2 1 2 2 5 6 4 5 8 7 4 3 6 8 7 9 9
12 15 17 10 2 4 3 5 4 3 5 2 3 3 4 3 0 5 2 3 3 4 4 2 2 1 1 2 1 1 2 2 1 2 4 2 3 11 2 5 8 9 9 10 8
8 12 14 5 4 2 5 5 4 11 7 4 3 2 1 4 3 1 1 5 2 4 6 4 0 2 2 2 3 3 3 2 2 2 3 4 3 9 4 6 4 5 9 8 5
7 7 5 2 0 4 4 3 9 7 4 7 1 3 2 3 2 3 1 2 4 6 2 2 1 2 1 1 1 3 4 5 7 5 5 3 2 14 5 5 7 7 8 6 6
6 7 3 2 2 4 3 9 5 4 6 1 2 3 1 1 1 2 1 2 2 3 4 5 5 3 2 2 4 2 4 6 5 3 5 5 9 9 6 7 6 6 6 2 6
5 2 0 3 4 2 7 6 11 8 4 6 2 5 6 4 0 1 3 4 3 3 6 5 2 1 4 3 1 1 2 2 4 2 3 5 10 12 8 8 1 3 1 6 8
0 1 1 5 4 4 8 7 5 4 6 4 5 4 5 4 1 1 1 4 5 2 2 4 3 1 1 1 2 1 4 4 3 1 6 6 7 12 5 5 6 6 7 9 7
2 3 2 2 3 7 4 8 5 5 1 7 5 3 4 5 7 5 5 5 3 4 4 4 5 2 5 5 7 1 1 4 3 4 5 4 9 8 7 7 8 8 8 8 8
3 0 2 2 5 3 4 7 2 3 2 3 4 6 8 6 4 3 6 6 6 6 6 5 6 4 6 2 3 1 4 6 6 6 4 2 15 6 7 7 7 7 7 8 8
4 1 1 3 5 4 3 4 4 5 5 4 6 5 3 8 1 5 3 2 6 5 6 5 2 3 7 4 5 2 5 4 3 3 7 6 12 2 3 4 5 7 8 8 8
5 3 1 1 1 5 5 5 4 6 4 5 3 3 4 4 4 5 5 1 2 3 4 5 2 7 8 7 5 2 4 4 6 4 5 16 23 23 19 14 16 13 8 9 9
4 5 4 7 5 5 7 7 6 6 2 5 2 7 8 5 5 7 4 3 2 6 4 6 5 2 3 5 5 8 7 9 14 18 11 25 17 24 19 12 8 10 12 12 9
9 6 1 4 5 16 11 10 13 4 11 7 7 11 10 9 12 10 9 6 7 5 7 2 3 3 5 6 8 11 13 18 24 24 24 29 34 36 29 24 19 17 10 9 8
3 3 4 10 8 11 11 14 19 12 9 9 18 8 14 20 6 4 6 4 10 12 9 7 6 4 7 4 7 11 21 26 10 10 23 21 33 18 17 12 9 11 8 9 9
Wind_Direction
33 28 27 25 25 18 18 8 9 8 358 357 342 323 318 331 322 33 37 330 321 314 314 263 245 242 232 6 28 14 68 37 356 33 65 352 29 338 294 22 66 42 77 265 305
28 27 20 19 15 9 5 359 1 4 1 352 352 326 310 335 326 36 354 344 333 328 332 20 27 235 58 41 18 60 71 87 356 35 13 335 62 320 26 15 355 348 347 348 1
21 20 15 12 4 2 357 354 348 349 349 344 358 1 339 340 68 339 346 343 335 334 251 295 306 73 57 45 360 34 89 158 42 33 5 0 8 324 14 38 53 328 324 354 4
15 14 9 4 2 356 353 346 341 344 349 344 350 6 45 27 80 303 338 334 332 339 10 316 1 58 68 60 360 95 40 75 56 46 65 2 301 335 30 187 305 310 349 4 0
9 6 2 1 357 354 350 344 337 334 344 340 342 334 142 44 49 293 330 319 335 2 30 40 43 70 99 88 48 75 135 76 121 32 87 13 314 297 250 130 330 309 58 9 335
6 2 356 355 353 348 346 337 329 329 341 336 339 341 69 73 265 326 326 326 359 27 10 32 83 87 82 57 80 109 109 128 76 10 78 17 285 12 230 179 335 341 258 337 323
1 358 353 351 348 340 341 333 327 324 335 337 339 35 57 171 301 333 340 332 346 15 35 353 334 84 137 90 177 130 89 118 12 340 17 329 270 219 204 129 355 331 297 249 282
357 353 350 347 342 338 340 327 314 322 324 318 324 64 90 255 289 332 340 330 342 309 134 294 4 94 76 113 102 110 56 44 337 356 342 64 278 217 199 162 232 287 294 284 286
353 348 347 345 340 335 333 318 310 307 308 305 40 94 55 313 10 320 15 330 305 323 297 311 13 83 29 69 34 6 135 24 331 92 319 70 272 256 193 272 236 264 280 281 307
353 349 347 344 341 334 326 296 311 351 354 356 37 54 5 323 306 324 313 306 313 323 19 37 50 67 17 37 169 335 22 339 278 336 331 262 262 261 269 254 231 230 273 291 288
351 348 344 344 341 338 347 23 21 356 41 97 266 142 357 304 275 352 344 327 243 49 62 26 63 76 47 48 125 101 49 297 264 38 343 259 281 275 252 263 227 224 237 265 269
350 346 344 343 341 344 41 64 42 285 79 22 295 77 231 19 352 340 353 54 44 52 17 30 97 192 264 5 47 96 358 309 294 353 346 301 287 284 246 230 192 205 224 248 265
348 345 342 339 339 43 64 55 331 338 96 12 328 43 306 360 86 324 14 357 67 53 21 102 151 138 26 45 44 26 245 36 241 319 271 293 291 319 357 177 172 197 214 242 239
345 344 342 334 51 16 51 333 329 348 72 295 350 2 326 350 31 303 358 10 34 107 86 86 2 301 345 77 21 232 54 359 314 18 290 40 282 308 280 217 202 223 237 249 251
342 343 341 21 226 60 284 324 326 49 28 311 346 316 298 73 104 5 317 17 96 117 106 206 141 144 231 75 43 192 358 249 266 337 354 312 65 270 96 258 245 243 244 236 242
338 343 344 25 50 346 321 342 58 42 265 315 299 312 38 18 27 324 8 48 96 81 40 113 132 75 170 302 210 295 312 102 38 68 24 256 131 280 207 212 215 215 215 221 284
323 343 20 18 161 318 355 46 38 120 335 297 262 32 53 11 11 28 21 33 144 79 348 40 87 139 103 101 275 31 47 341 353 5 232 330 318 247 242 220 196 199 230 268 299
307 338 19 81 330 2 55 51 83 243 217 238 104 19 112 9 284 334 107 359 317 65 94 140 318 177 322 116 169 17 136 150 240 279 283 318 243 254 233 201 201 206 217 265 310
325 299 94 329 337 77 71 70 202 203 164 153 72 75 316 348 311 12 208 200 181 155 145 117 294 51 37 19 89 172 80 158 98 71 33 234 283 295 238 259 152 207 93 300 293
127 349 223 307 7 41 81 226 217 198 147 148 192 159 186 235 117 36 327 231 161 90 131 228 49 345 333 14 357 146 166 77 11 357 288 278 270 237 273 236 240 222 252 277 295
85 37 261 341 74 51 170 230 216 212 150 160 194 168 214 198 168 197 221 290 149 136 83 132 98 297 41 205 178 96 62 44 113 156 194 292 257 222 226 203 203 224 246 278 286
143 226 300 8 67 131 179 195 274 180 103 191 169 171 186 158 171 267 220 201 154 153 153 199 141 180 226 313 11 316 200 162 134 242 238 179 265 255 253 218 202 243 269 277 273
188 187 329 79 164 229 258 268 208 178 203 183 213 208 173 172 150 183 207 343 153 152 163 200 297 20 335 353 357 229 210 200 113 93 211 145 259 226 262 246 247 253 266 273 275
132 176 288 164 171 165 157 227 217 203 189 172 179 67 128 175 216 193 185 185 175 136 108 115 143 185 195 198 131 201 248 203 140 158 189 226 274 272 264 274 283 285 269 296 287
153 202 192 176 227 198 166 163 163 190 237 185 185 212 175 162 172 209 158 122 44 158 122 123 200 172 266 221 189 205 202 200 210 222 212 267 242 266 273 271 260 286 300 292 284
151 156 216 174 157 187 194 202 177 191 155 217 204 207 188 169 188 186 146 177 188 177 162 151 245 107 290 279 228 253 222 238 230 234 251 258 275 263 279 281 275 276 270 269 284
110 33 173 173 168 167 198 202 203 174 214 193 202 147 195 224 152 126 139 153 158 156 174 153 140 103 264 325 321 289 221 218 210 214 225 233 241 274 274 264 260 267 249 256 265